Weather reports worldwide

Advertisment
Ingolstadt (Flugplatz), Germany (10860): temperature & dewpoint: 20.09.2020 13:00:00 - 26.09.2020 13:00:00 (CEST)Ingolstadt (Flugplatz), Germany (10860): wind speed & gusts: 20.09.2020 13:00:00 - 26.09.2020 13:00:00 (CEST)Ingolstadt (Flugplatz), Germany (10860): wind direction: 20.09.2020 13:00:00 - 26.09.2020 13:00:00 (CEST)Ingolstadt (Flugplatz), Germany (10860): reduced air pressure: 20.09.2020 13:00:00 - 26.09.2020 13:00:00 (CEST)Ingolstadt (Flugplatz), Germany (10860): visibility: 20.09.2020 13:00:00 - 26.09.2020 13:00:00 (CEST)
Date & Time tt [°C] td [°C] ff [km/h] ff [kn] fx [km/h] fx [kn] dd ppp [hPa] vv [km]
26.09.2020 13:00:00 7,7 5,9 25 14 50 27 W 1000,6 5
26.09.2020 12:00:00 8,4 5,8 25 14 54 29 W 1000,1 5
26.09.2020 11:00:00 8,2 5,7 32 18 - - W 1000,2 6
26.09.2020 10:00:00 8,0 5,4 29 16 - - W 999,7 7
26.09.2020 09:00:00 7,6 6,2 25 14 - - W 999,7 7
26.09.2020 08:00:00 7,4 6,4 29 16 - - W 1000,0 6
26.09.2020 07:00:00 7,7 6,5 22 12 - - W 1000,1 8
26.09.2020 06:00:00 7,7 6,3 22 12 - - WNW 1000,4 7
26.09.2020 05:00:00 8,3 6,6 18 10 - - W 1000,0 7
26.09.2020 04:00:00 8,2 7,0 14 8 - - W 1000,4 6
26.09.2020 03:00:00 7,6 6,8 14 8 - - W 999,9 3,9
26.09.2020 02:00:00 7,5 6,3 11 6 - - W 1000,9 6
26.09.2020 01:00:00 7,0 5,6 11 6 - - W 1001,0 7
26.09.2020 00:00:00 6,5 5,4 7 4 - - WSW 1001,5 7
25.09.2020 23:00:00 6,4 5,1 7 4 - - WSW 1001,4 7
25.09.2020 22:00:00 6,2 5,2 11 6 - - WSW 1002,2 7
25.09.2020 21:00:00 6,6 5,1 7 4 - - WSW 1002,4 7
25.09.2020 20:00:00 7,3 5,7 11 6 - - WSW 1002,3 4,7
25.09.2020 19:00:00 7,8 6,3 7 4 - - SW 1002,0 15
25.09.2020 18:00:00 7,7 6,4 11 6 - - W 1002,4 8
25.09.2020 17:00:00 8,1 6,0 11 6 - - WSW 1002,3 10
25.09.2020 16:00:00 9,3 5,9 7 4 54 29 W 1002,2 10
25.09.2020 15:00:00 10,2 7,8 11 6 - - W 1001,5 18
25.09.2020 14:00:00 10,0 8,1 14 8 - - W 1001,4 9
25.09.2020 13:00:00 10,8 8,7 11 6 - - WSW 1002,1 10
25.09.2020 12:00:00 10,2 8,4 18 10 - - W 1002,6 40
25.09.2020 11:00:00 10,0 8,2 14 8 - - W 1002,9 15
25.09.2020 10:00:00 9,9 8,3 11 6 - - WSW 1002,1 15
25.09.2020 09:00:00 10,6 8,5 22 12 54 29 NW 1001,1 12
25.09.2020 08:00:00 12,7 11,7 4 2 - - N 1000,0 30
25.09.2020 07:00:00 12,9 11,8 7 4 - - SW 999,9 6
25.09.2020 06:00:00 13,1 12,1 4 2 - - N 1000,5 6
25.09.2020 05:00:00 13,1 12,1 7 4 - - SSW 1000,9 6
25.09.2020 04:00:00 13,5 12,4 7 4 - - SW 1001,6 6
25.09.2020 03:00:00 13,8 12,7 14 8 - - WSW 1001,8 5
25.09.2020 02:00:00 13,3 12,7 7 4 - - W 1002,6 5
25.09.2020 01:00:00 14,0 12,9 11 6 47 25 WNW 1003,3 6
25.09.2020 00:00:00 15,3 14,4 25 14 50 27 W 1002,9 0,8
24.09.2020 23:00:00 16,4 14,3 7 4 - - E 1001,4 6
24.09.2020 22:00:00 16,4 14,2 7 4 - - E 1002,4 6
24.09.2020 21:00:00 16,8 14,0 4 2 - - N 1003,8 6
24.09.2020 20:00:00 16,8 13,7 7 4 - - E 1004,2 6
24.09.2020 19:00:00 18,6 13,8 7 4 - - E 1004,8 6
24.09.2020 18:00:00 20,8 13,1 7 4 - - N 1005,2 50
24.09.2020 17:00:00 20,8 13,3 7 4 - - N 1006,0 40
24.09.2020 16:00:00 20,5 12,9 7 4 - - E 1006,7 40
24.09.2020 15:00:00 20,5 12,7 4 2 - - SE 1007,4 40
24.09.2020 14:00:00 20,2 12,8 4 2 - - WNW 1008,2 40
24.09.2020 13:00:00 19,6 13,1 11 6 - - WNW 1008,6 35
24.09.2020 12:00:00 19,2 13,2 18 10 - - W 1009,1 35
24.09.2020 11:00:00 17,8 13,7 14 8 - - WNW 1009,3 30
24.09.2020 10:00:00 16,0 13,9 7 4 - - N 1009,2 30
24.09.2020 09:00:00 13,1 12,3 4 2 - - N 1009,0 30
24.09.2020 08:00:00 11,5 11,0 4 2 - - S 1008,8 25
24.09.2020 07:00:00 11,1 10,7 0 0 - - N 1008,5 25
24.09.2020 06:00:00 10,7 10,5 4 2 - - NNE 1008,5 4,7
24.09.2020 05:00:00 10,2 9,9 4 2 - - N 1008,5 0,8
24.09.2020 04:00:00 10,9 10,5 0 0 - - N 1008,6 0,9
24.09.2020 03:00:00 10,8 10,4 4 2 - - SSW 1008,6 0,2
24.09.2020 02:00:00 10,9 10,6 0 0 - - N 1008,5 0,4
24.09.2020 01:00:00 11,9 11,5 7 4 - - S 1008,9 -
24.09.2020 00:00:00 13,1 12,6 7 4 - - S 1008,7 -
23.09.2020 23:00:00 14,1 13,1 7 4 - - SW 1008,8 5
23.09.2020 22:00:00 14,3 13,4 4 2 - - SW 1008,6 6
23.09.2020 21:00:00 15,8 14,0 4 2 - - SSW 1008,1 7
23.09.2020 20:00:00 16,9 15,0 7 4 - - SSW 1007,6 7
23.09.2020 19:00:00 17,3 15,3 4 2 - - SSW 1007,2 6
23.09.2020 18:00:00 19,9 14,2 7 4 - - N 1006,9 18
23.09.2020 17:00:00 20,6 14,5 7 4 - - SW 1007,0 25
23.09.2020 16:00:00 19,5 15,1 7 4 - - SSW 1007,5 25
23.09.2020 15:00:00 18,7 15,2 7 4 - - SW 1008,1 25
23.09.2020 14:00:00 18,7 15,1 4 2 - - SSE 1008,6 25
23.09.2020 13:00:00 17,9 15,1 7 4 - - SW 1009,0 18
23.09.2020 12:00:00 17,1 15,3 7 4 - - WSW 1009,2 16
23.09.2020 11:00:00 16,7 15,2 11 6 - - WSW 1009,3 14
23.09.2020 10:00:00 16,0 15,0 7 4 - - WSW 1009,3 10
23.09.2020 09:00:00 15,9 15,1 11 6 - - WSW 1008,7 10
23.09.2020 08:00:00 15,5 14,8 7 4 - - WSW 1008,4 10
23.09.2020 07:00:00 15,3 14,4 11 6 - - W 1008,1 8
23.09.2020 06:00:00 14,6 14,1 36 19 54 29 W 1008,0 0,6
23.09.2020 05:00:00 15,4 13,8 7 4 - - WSW 1007,9 5
23.09.2020 04:00:00 15,4 14,3 11 6 - - W 1007,9 4,4
23.09.2020 03:00:00 14,2 12,9 4 2 - - SW 1008,4 4,8
23.09.2020 02:00:00 14,7 13,7 4 2 - - WNW 1008,5 3,8
23.09.2020 01:00:00 14,0 13,2 4 2 - - N 1008,9 2,7
23.09.2020 00:00:00 14,3 13,5 4 2 - - SSE 1008,8 0,8
22.09.2020 23:00:00 15,0 13,5 0 0 - - N 1009,0 0,8
22.09.2020 22:00:00 16,7 14,9 4 2 - - E 1008,7 1,9
22.09.2020 21:00:00 17,4 15,4 4 2 - - SSE 1008,8 4,9
22.09.2020 20:00:00 19,1 15,1 4 2 - - S 1008,5 6
22.09.2020 19:00:00 22,0 14,8 4 2 - - E 1008,3 25
22.09.2020 18:00:00 24,1 13,5 4 2 - - N 1008,4 30
22.09.2020 17:00:00 24,3 13,9 4 2 - - N 1008,9 30
22.09.2020 16:00:00 24,5 13,8 4 2 - - N 1009,8 30
22.09.2020 15:00:00 24,2 14,5 4 2 - - SSE 1010,2 25
22.09.2020 14:00:00 23,5 14,3 4 2 - - NE 1010,9 25
22.09.2020 13:00:00 22,1 14,4 7 4 - - ENE 1011,6 20
22.09.2020 12:00:00 20,6 14,3 7 4 - - N 1012,5 12
22.09.2020 11:00:00 18,4 12,9 4 2 - - W 1013,3 12
22.09.2020 10:00:00 16,2 12,1 4 2 - - N 1013,7 10
22.09.2020 09:00:00 13,8 11,4 4 2 - - ENE 1014,1 8
22.09.2020 08:00:00 11,4 10,4 4 2 - - N 1014,5 5
22.09.2020 07:00:00 11,1 10,6 4 2 - - N 1014,7 5
22.09.2020 06:00:00 9,4 8,9 0 0 - - N 1014,9 0,8
22.09.2020 05:00:00 8,9 8,0 4 2 - - SW 1015,0 0,1
22.09.2020 04:00:00 10,1 9,2 4 2 - - E 1014,9 0,5
22.09.2020 03:00:00 10,0 9,3 4 2 - - N 1015,1 0,1
22.09.2020 02:00:00 11,4 10,8 0 0 - - N 1014,8 4,3
22.09.2020 01:00:00 12,5 11,5 7 4 - - ENE 1014,9 1,9
22.09.2020 00:00:00 12,3 11,3 4 2 - - N 1015,1 6
21.09.2020 23:00:00 13,3 11,8 0 0 - - N 1015,3 4,7
21.09.2020 22:00:00 15,2 13,0 4 2 - - ENE 1015,1 5
21.09.2020 21:00:00 15,4 12,6 7 4 - - S 1015,2 6
21.09.2020 20:00:00 17,1 12,5 4 2 - - S 1014,4 6
21.09.2020 19:00:00 21,7 11,6 7 4 - - E 1013,5 8
21.09.2020 18:00:00 23,2 11,4 11 6 - - E 1013,5 45
21.09.2020 17:00:00 23,5 12,0 7 4 - - E 1013,6 45
21.09.2020 16:00:00 23,4 11,7 4 2 - - E 1013,9 45
21.09.2020 15:00:00 23,4 11,8 4 2 - - NE 1014,1 45
21.09.2020 14:00:00 22,3 11,8 7 4 - - E 1014,9 45
21.09.2020 13:00:00 21,2 12,0 7 4 - - E 1015,4 40
21.09.2020 12:00:00 19,5 11,1 4 2 - - NE 1015,8 35
21.09.2020 11:00:00 17,3 11,2 4 2 - - E 1016,3 30
21.09.2020 10:00:00 14,1 10,3 4 2 - - E 1016,9 15
21.09.2020 09:00:00 11,1 10,2 0 0 - - N 1017,2 10
21.09.2020 08:00:00 8,7 8,5 0 0 - - N 1017,4 0,1
21.09.2020 07:00:00 8,4 8,0 4 2 - - NE 1017,2 0,1
21.09.2020 06:00:00 7,4 6,6 4 2 - - S 1017,2 0,3
21.09.2020 05:00:00 8,3 7,8 4 2 - - SSW 1017,0 1,3
21.09.2020 04:00:00 9,3 8,8 0 0 - - N 1016,8 0,2
21.09.2020 03:00:00 9,0 7,8 4 2 - - W 1016,7 0,1
21.09.2020 02:00:00 10,3 9,5 4 2 - - N 1016,3 1,5
21.09.2020 01:00:00 9,7 8,2 0 0 - - N 1016,5 0,6
21.09.2020 00:00:00 11,0 9,9 0 0 - - N 1016,4 2,0
20.09.2020 23:00:00 11,9 10,6 0 0 - - N 1016,0 5
20.09.2020 22:00:00 12,4 10,1 4 2 - - S 1016,0 6
20.09.2020 21:00:00 13,9 10,6 4 2 - - SSE 1015,6 6
20.09.2020 20:00:00 16,6 9,9 4 2 - - N 1014,8 6
20.09.2020 19:00:00 20,1 9,0 4 2 - - E 1013,8 7
20.09.2020 18:00:00 21,7 8,4 14 8 - - ENE 1013,4 8
20.09.2020 17:00:00 22,0 9,3 14 8 - - E 1013,2 8
20.09.2020 16:00:00 22,1 8,6 14 8 - - ENE 1013,5 8
20.09.2020 15:00:00 21,7 10,3 11 6 - - NE 1013,7 8
20.09.2020 14:00:00 20,7 10,4 7 4 - - ENE 1014,1 7
20.09.2020 13:00:00 19,5 10,4 7 4 - - ENE 1014,8 7

tt = temperature
td = dewpoint
ff = wind speed
fx = gusts
dd = wind direction
ppp = reduced air pressure
vv = visibility

Next stations